Kahului, HI

12:27 PM HST on March 28, 2017 (GMT -1000)
Kahului

Weather History for PHOG - February, 2013

Change the Weather History Date:

Friday, February 15, 2013

  Actual Average Record
Temperature  
Mean Temperature 73 °F 72 °F  
Max Temperature 80 °F 81 °F 88 °F (1981)
Min Temperature 65 °F 63 °F 53 °F (1993)
Degree Days  
Heating Degree Days 0 0  
Month to date heating degree days 0 0  
Since 1 July heating degree days 0 0  
Cooling Degree Days 8 7  
Month to date cooling degree days 100 105  
Year to date cooling degree days 331 322  
Growing Degree Days 22 (Base 50)    
Moisture  
Dew Point 61 °F    
Average Humidity 68    
Maximum Humidity 81    
Minimum Humidity 54    
Precipitation  
Precipitation T in 0.06 in 1.00 in (1986)
Month to date precipitation 0.87 1.04  
Year to date precipitation 2.86 3.91  
Snow  
Snow 0.00 in - - ()
Month to date snowfall 0.0  
Since 1 July snowfall 0.0  
Snow Depth 0.00 in    
Sea Level Pressure  
Sea Level Pressure 30.07 in    
Wind  
Wind Speed 15 mph (ENE)    
Max Wind Speed 31 mph    
Max Gust Speed 40 mph    
Visibility 10 miles    
Events Rain    
T = Trace of Precipitation, MM = Missing Value Source: NWS Daily Summary

Daily Weather History Graph

Daily Weather History Graph

Search for Another Location

Airport or City:

Trip Planner

Search our weather history database for the weather conditions in past years. The results will help you decide how hot, cold, wet, or windy it might be!

Date:

Astronomy

Feb. 15, 2013 Rise Set
Actual Time 6:55 AM HST 6:24 PM HST
Civil Twilight 6:32 AM HST 6:47 PM HST
Nautical Twilight 6:06 AM HST 7:13 PM HST
Astronomical Twilight 5:40 AM HST 7:39 PM HST
Moon 10:29 AM HST (2/15) 11:41 PM HST (2/15)
Length of Visible Light 12h 14m
Length of Day
11h 28m
Waxing Crescent, 32% of the Moon is Illuminated
Feb 15
Waxing Crescent
Feb 17
First Quarter
Feb 25
Full
Mar 4
Last Quarter
Mar 11
New

Hourly Weather History & Observations

Time (HST) Temp. Dew Point Humidity Pressure Visibility Wind Dir Wind Speed Gust Speed Precip Events Conditions
12:54 AM 66.9 °F 60.1 °F 79% 30.09 in 10.0 mi ENE 5.8 mph - 0.00 in   Partly Cloudy
1:54 AM 66.0 °F 59.0 °F 78% 30.07 in 10.0 mi NE 9.2 mph - N/A   Clear
2:54 AM 66.9 °F 57.9 °F 73% 30.06 in 10.0 mi NE 6.9 mph - N/A   Partly Cloudy
3:54 AM 64.9 °F 57.0 °F 75% 30.06 in 10.0 mi NE 8.1 mph - N/A   Mostly Cloudy
4:54 AM 66.9 °F 60.1 °F 79% 30.05 in 10.0 mi NE 13.8 mph - N/A   Mostly Cloudy
5:54 AM 68.0 °F 57.9 °F 70% 30.06 in 10.0 mi NE 13.8 mph - N/A   Clear
6:54 AM 66.0 °F 57.9 °F 75% 30.08 in 10.0 mi NNE 6.9 mph - N/A   Partly Cloudy
7:54 AM 70.0 °F 59.0 °F 68% 30.09 in 10.0 mi North 10.4 mph - N/A   Partly Cloudy
8:54 AM 73.9 °F 59.0 °F 59% 30.09 in 10.0 mi ENE 9.2 mph - N/A   Partly Cloudy
9:54 AM 75.9 °F 57.9 °F 54% 30.10 in 10.0 mi ESE 5.8 mph 25.3 mph N/A   Partly Cloudy
10:54 AM 77.0 °F 64.0 °F 64% 30.09 in 10.0 mi NE 19.6 mph 31.1 mph N/A   Partly Cloudy
12:54 PM 78.1 °F 64.0 °F 62% 30.03 in 10.0 mi ENE 21.9 mph 35.7 mph N/A   Scattered Clouds
1:54 PM 79.0 °F 63.0 °F 58% 30.01 in 10.0 mi ENE 24.2 mph 38.0 mph N/A   Scattered Clouds
2:54 PM 79.0 °F 62.1 °F 56% 30.00 in 10.0 mi East 26.5 mph 36.8 mph N/A   Scattered Clouds
3:54 PM 78.1 °F 62.1 °F 58% 30.01 in 10.0 mi East 20.7 mph 35.7 mph N/A   Scattered Clouds
4:54 PM 75.0 °F 62.1 °F 64% 30.03 in 10.0 mi East 24.2 mph 32.2 mph 0.00 in   Scattered Clouds
5:54 PM 75.0 °F 57.9 °F 55% 30.05 in 10.0 mi ENE 18.4 mph 33.4 mph N/A   Partly Cloudy
6:54 PM 72.0 °F 61.0 °F 68% 30.06 in 10.0 mi NE 18.4 mph 26.5 mph N/A   Partly Cloudy
7:54 PM 72.0 °F 60.1 °F 66% 30.09 in 10.0 mi ENE 17.3 mph 26.5 mph N/A   Clear
8:54 PM 72.0 °F 63.0 °F 73% 30.11 in 10.0 mi NE 19.6 mph 28.8 mph N/A   Partly Cloudy
9:54 PM 71.1 °F 64.0 °F 78% 30.12 in 10.0 mi ENE 17.3 mph 24.2 mph N/A   Partly Cloudy
10:54 PM 71.1 °F 64.0 °F 78% 30.13 in 10.0 mi NE 13.8 mph - N/A   Clear
11:54 PM 70.0 °F 64.0 °F 81% 30.12 in 10.0 mi ENE 16.1 mph 28.8 mph 0.00 in Rain Light Rain